Regional Weather Roundup
Issued by NWS

Home | Current Version | Previous Version | Text Only | Print | Product List | Glossary On
Versions: 1 2 3 4 5 6 7 8 9 10 11 12 13 14 15 16 17 18 19 20 21 22 23 24 25 26 27 28 29 30 31 32 33 34 35 36 37 38 39 40 41 42 43 44 45 46 47 48 49 50
000
ASUS46 KSTO 161215
RWRCA

NORTHERN AND CENTRAL CA REGIONAL WEATHER ROUNDUP
NATIONAL WEATHER SERVICE SACRAMENTO CA
400 AM PST MON JAN 16 2017

NOTE: FAIR INDICATES FEW OR NO CLOUDS BELOW 12,000 FEET WITH NO
SIGNIFICANT WEATHER AND/OR OBSTRUCTIONS TO VISIBILITY.

CAZ001-003-161300-
NORTHWEST AREA

CITY           SKY/WX    TMP DP  RH WIND       PRES   REMARKS
CRESCENT CITY  PTCLDY    42  37  82 E7        30.19S
UKIAH          FOG       36  36 100 NW3       30.16F VSB 1/4
$$

CAZ006-505>513-161300-
BAY AREA

CITY           SKY/WX    TMP DP  RH WIND       PRES   REMARKS
SANTA ROSA     FOG       37  37 100 N3        30.16R VSB 1/4
SAN RAFAEL     N/A       42  MM  MM MISG
NAPA           CLEAR     42  38  85 E7        30.15R
CONCORD        CLEAR     36  32  85 CALM      30.15F FOG
OAKLAND CITY   N/A       46  MM  MM MISG
OAKLAND        CLEAR     44  38  79 E13       30.15S
SAN FRAN CITY  N/A       43  MM  84 MISG
SAN FRAN ARPT  PTCLDY    46  39  76 E15       30.14S
LIVERMORE      CLEAR     40  36  86 E9        30.13F WCI  34
HAYWARD        CLEAR     42  34  73 CALM      30.14S
REDWOOD CITY   N/A       36  MM  96 MISG
MOFFETT ARPT   CLEAR     41  36  82 N10       30.14S
SAN JOSE ARPT  CLEAR     40  36  86 CALM      30.13F
$$
CAZ034-037-514>518-161300-
CENTRAL COAST

CITY           SKY/WX    TMP DP  RH WIND       PRES   REMARKS
WATSONVILLE    CLEAR     37  36  96 NW5       30.12S WCI  33
SALINAS        CLEAR     42  37  82 S3        30.12R
MONTEREY       CLEAR     36  34  92 E5        30.10R WCI  32
SAN LUIS OBISP CLEAR     38  33  82 CALM      30.06S
SANTA MARIA    CLEAR     36  36 100 CALM      30.06F
$$
CAZ015-016-161300-
NORTHERN SACRAMENTO VALLEY

CITY           SKY/WX    TMP DP  RH WIND       PRES   REMARKS
REDDING        CLEAR     32  32 100 CALM      30.16S FOG
RED BLUFF      PTCLDY    33  32  96 NW5       30.18S WCI  29
OROVILLE       FOG       32  30  92 CALM      30.17S VSB 1/4
$$
CAZ016>018-161300-
SOUTHERN SACRAMENTO VALLEY

CITY           SKY/WX    TMP DP  RH WIND       PRES   REMARKS
AUBURN         CLOUDY    36  36 100 CALM      30.12S
BEALE AFB      CLEAR     30  30 100 CALM      30.15S FOG
LINCOLN        CLOUDY    32  32 100 CALM      30.15F
MARYSVILLE     FOG       30  28  92 W3        30.17F VSB 1/4
SAC INTL ARPT  FOG       37  37 100 CALM      30.16F VSB 1/8
MATHER AIRPORT NOT AVBL
DOWNTOWN SAC   N/A       41  MM  MM MISG
SAC EXEC ARPT  CLOUDY    41  41 100 CALM      30.16F FOG
VACAVILLE      CLEAR     36  36 100 NE3       30.17F
TRAVIS AFB     CLEAR     35  34  96 NE5       30.15S FOG     WCI  31
$$
CAZ019>021-161300-
SAN JOAQUIN VALLEY

CITY           SKY/WX    TMP DP  RH WIND       PRES   REMARKS
STOCKTON       CLOUDY    39  39 100 CALM      30.16S FOG
MODESTO        CLOUDY    44  38  79 CALM      30.16R
MERCED         CLOUDY    44  37  76 CALM      30.15R
LEMOORE        CLOUDY    44  40  85 SE3       30.14
FRESNO         CLOUDY    44  36  73 SE3       30.14F
HANFORD        CLOUDY    45  39  79 E3        30.14F
PORTERVILLE    CLEAR     44  36  73 SE3       30.14F
BAKERSFIELD    CLOUDY    45  35  68 CALM      30.12F HAZE
$$
CAZ011-012-071-161300-
NORTHERN MOUNTAINS

CITY           SKY/WX    TMP DP  RH WIND       PRES   REMARKS
YREKA          PTCLDY    24  22  91 CALM      30.30S
MOUNT SHASTA   CLEAR     27  22  81 VRB3      30.24S
ALTURAS        PTCLDY    11   7  84 CALM      30.28S
$$
CAZ011-012-071-161300-
SIERRA NEVADA MTNS

CITY           SKY/WX    TMP DP  RH WIND       PRES   REMARKS
BLUE CANYON    CLEAR     37  12  35 VRB6      30.08S WCI  32
TRUCKEE        CLOUDY    19  18  93 CALM      30.23S
TAHOE VLY ARPT PTCLDY    17  13  84 CALM      30.17F
MAMMOTH LAKES  FAIR      18  10  68 W12       30.19S WCI   6
$$



USA.gov is the U.S. government's official web portal to all federal, state and local government web resources and services.